"startDT [UTC]","vpos","CH4 [ppm]","stdev(CH4) [ppm]","CO2 [ppm]","stdev(CO2) [ppm]","H2O [ppm]","stdev(H2O)","p_LGR [torr]","T_LGR [C]","mt1_LGR [us]","mt2_LGR [us]","T_ECpre [C]","T_EC1 [C]","T_EC2 [C]","p_inlet [hPa]","p_in [hPa]","p_out [hPa]","T_inlet [C]","RH_inlet [%]","dwpt_inlet [C]","T_vent [C]","RH_vent [%]","dwpt_vent [C]","flow_vent [l min-1]","flow_inlet [l min-1]","dwpt_sample [C]","T_room [C]"
2012-08-24 00:00:00,0.0,1.9657,0.0009,387.72,0.35,316.1,35.1,138.06,31.25,24.66,36.54,0.94,-5.72,-26.74,-49,78,-924,25.8,21.0,1.8,25.6,1.8,-28.5,5.73,2.53,-26.3,29.9
2012-08-24 00:01:00,0.0,1.9660,0.0010,387.24,0.27,302.7,28.1,138.06,31.25,24.66,36.55,0.95,-4.62,-26.74,-49,78,-924,25.8,21.0,1.8,25.6,1.8,-28.6,5.73,2.52,-26.4,29.9
2012-08-24 00:02:00,0.0,1.9663,0.0010,387.28,0.23,300.9,29.0,138.06,31.25,24.66,36.55,0.95,-3.57,-26.74,-49,78,-924,25.8,21.2,1.9,25.6,1.8,-28.6,5.73,2.52,-26.5,29.9
2012-08-24 00:03:00,0.0,1.9660,0.0009,387.49,0.35,298.4,34.1,138.06,31.25,24.66,36.54,0.94,-2.59,-26.74,-49,78,-924,25.8,21.1,1.9,25.6,1.7,-28.8,5.73,2.52,-26.5,29.9
2012-08-24 00:04:00,0.0,1.9658,0.0008,387.58,0.32,297.7,36.6,138.06,31.24,24.66,36.54,0.91,-1.66,-26.74,-49,78,-924,25.8,21.0,1.8,25.6,1.7,-28.9,5.73,2.52,-26.6,29.9
2012-08-24 00:05:00,0.0,1.9669,0.0010,387.59,0.31,283.8,27.6,138.06,31.24,24.66,36.54,0.92,-0.77,-26.74,-49,78,-923,25.8,21.0,1.8,25.6,1.7,-29.0,5.73,2.52,-26.6,29.9
2012-08-24 00:06:00,0.0,1.9681,0.0013,387.33,0.34,285.0,34.1,138.06,31.24,24.66,36.54,0.88,0.07,-26.74,-49,78,-923,25.7,21.2,1.9,25.6,1.7,-29.0,5.73,2.52,-26.7,29.9
2012-08-24 00:07:00,0.0,1.9693,0.0007,387.25,0.29,278.1,31.4,138.06,31.24,24.65,36.55,0.91,0.86,-26.73,-49,78,-923,25.7,21.2,1.9,25.6,1.7,-29.2,5.73,2.53,-26.8,29.9
2012-08-24 00:08:00,0.0,1.9687,0.0010,387.16,0.28,277.7,30.5,138.06,31.24,24.66,36.54,0.91,1.61,-26.73,-49,78,-924,25.8,21.3,2.0,25.6,1.7,-29.2,5.73,2.53,-26.8,29.9
2012-08-24 00:09:00,0.0,1.9695,0.0011,387.22,0.29,268.0,32.6,138.06,31.24,24.66,36.54,0.91,2.29,-26.72,-49,78,-924,25.7,21.3,2.0,25.6,1.7,-29.2,5.73,2.53,-26.9,29.8
2012-08-24 00:10:00,0.0,1.9702,0.0009,387.40,0.38,270.3,25.7,138.06,31.24,24.66,36.54,0.93,2.76,-26.72,-49,78,-924,25.7,21.4,2.0,25.5,1.6,-29.4,5.73,2.53,-26.9,29.8
2012-08-24 00:11:00,0.0,1.9705,0.0011,387.46,0.29,264.8,30.9,138.06,31.24,24.66,36.54,0.92,2.91,-26.71,-49,78,-923,25.7,21.2,1.9,25.5,1.6,-29.4,5.73,2.53,-27.0,29.8
2012-08-24 00:12:00,0.0,1.9721,0.0008,387.47,0.26,255.7,35.0,138.06,31.24,24.66,36.54,0.94,3.13,-26.70,-49,78,-924,25.7,21.1,1.8,25.5,1.6,-29.4,5.73,2.52,-27.0,29.7
2012-08-24 00:13:00,0.0,1.9730,0.0010,387.46,0.33,255.7,27.6,138.06,31.23,24.66,36.54,0.93,3.55,-26.69,-49,78,-923,25.7,21.1,1.8,25.5,1.6,-29.4,5.73,2.52,-27.1,29.7
2012-08-24 00:14:00,0.0,1.9727,0.0008,387.30,0.30,251.9,31.4,138.06,31.23,24.66,36.54,0.93,4.01,-26.69,-49,78,-923,25.7,21.2,1.8,25.5,1.6,-29.5,5.73,2.52,-27.1,29.7
2012-08-24 00:15:00,0.0,1.9719,0.0010,387.29,0.27,254.2,29.6,138.06,31.23,24.66,36.54,0.93,4.51,-26.68,-49,78,-923,25.7,21.3,1.9,25.5,1.6,-29.6,5.73,2.52,-27.1,29.7
2012-08-24 00:16:00,0.0,1.9701,0.0008,387.44,0.26,245.2,29.2,138.06,31.23,24.66,36.55,0.93,4.95,-26.67,-49,78,-923,25.6,21.2,1.8,25.5,1.6,-29.6,5.73,2.52,-27.2,29.8
2012-08-24 00:17:00,0.0,1.9707,0.0011,387.39,0.26,258.6,29.1,138.06,31.23,24.66,36.54,0.94,5.40,-26.66,-49,78,-923,25.6,21.3,1.9,25.4,1.6,-29.6,5.73,2.52,-27.2,29.8
2012-08-24 00:18:00,0.0,1.9704,0.0010,387.41,0.25,252.4,35.4,138.06,31.23,24.66,36.55,0.94,5.84,-26.65,-49,78,-923,25.6,21.3,1.9,25.4,1.6,-29.6,5.73,2.52,-27.2,29.8
2012-08-24 00:19:00,0.0,1.9712,0.0009,387.39,0.28,246.2,28.5,138.06,31.23,24.66,36.55,0.94,6.39,-26.64,-49,78,-923,25.6,21.5,2.0,25.4,1.6,-29.6,5.73,2.52,-27.2,29.8
2012-08-24 00:20:00,0.0,1.9723,0.0007,387.34,0.29,243.7,28.4,138.06,31.23,24.66,36.55,0.94,6.91,-26.64,-49,78,-923,25.6,21.5,2.0,25.4,1.6,-29.6,5.73,2.52,-27.2,29.8
2012-08-24 00:21:00,0.0,1.9727,0.0008,387.19,0.29,249.0,34.0,138.06,31.23,24.66,36.55,0.94,7.43,-26.63,-49,78,-923,25.6,21.5,2.0,25.4,1.6,-29.6,5.73,2.53,-27.2,29.8
2012-08-24 00:22:00,0.0,1.9721,0.0009,387.26,0.26,251.1,27.4,138.06,31.23,24.66,36.54,0.94,7.86,-26.62,-49,78,-923,25.6,21.6,2.1,25.4,1.6,-29.6,5.73,2.53,-27.2,29.8
2012-08-24 00:23:00,0.0,1.9718,0.0008,387.37,0.31,246.4,31.4,138.06,31.23,24.66,36.54,0.93,8.27,-26.61,-49,78,-923,25.6,21.7,2.1,25.4,1.6,-29.6,5.73,2.53,-27.3,29.8
2012-08-24 00:24:00,0.0,1.9712,0.0012,387.33,0.30,252.8,33.8,138.06,31.22,24.66,36.54,0.93,8.66,-26.60,-49,78,-923,25.6,21.6,2.1,25.4,1.6,-29.7,5.73,2.53,-27.2,29.8
2012-08-24 00:25:00,0.0,1.9691,0.0014,387.29,0.27,243.5,27.1,138.06,31.22,24.66,36.54,0.93,9.03,-26.59,-49,78,-923,25.6,21.5,1.9,25.4,1.6,-29.6,5.73,2.52,-27.3,29.8
2012-08-24 00:26:00,0.0,1.9688,0.0013,387.44,0.28,245.2,34.8,138.06,31.22,24.65,36.54,0.94,9.40,-26.58,-49,78,-923,25.6,21.4,1.9,25.4,1.6,-29.6,5.73,2.52,-27.3,29.8
2012-08-24 00:27:00,0.0,1.9699,0.0009,387.44,0.30,239.9,31.6,138.06,31.23,24.66,36.54,0.91,9.75,-26.57,-49,78,-923,25.5,21.4,1.9,25.4,1.6,-29.6,5.73,2.52,-27.3,29.8
2012-08-24 00:28:00,0.0,1.9694,0.0009,387.31,0.28,244.1,33.1,138.06,31.23,24.66,36.54,0.91,10.08,-26.57,-49,78,-923,25.6,21.4,1.9,25.4,1.6,-29.6,5.73,2.52,-27.3,29.8
2012-08-24 00:29:00,0.0,1.9696,0.0011,387.06,0.36,243.9,27.9,138.06,31.23,24.66,36.55,0.93,10.41,-26.56,-49,78,-923,25.6,21.6,2.0,25.4,1.6,-29.6,5.73,2.52,-27.3,29.8
2012-08-24 00:30:00,0.0,1.9714,0.0009,387.16,0.42,244.1,23.5,138.06,31.23,24.66,36.54,0.90,10.72,-26.55,-49,78,-923,25.6,21.8,2.2,25.4,1.6,-29.7,5.73,2.52,-27.3,29.8
2012-08-24 00:31:00,0.0,1.9713,0.0010,387.22,0.29,243.9,28.8,138.06,31.23,24.66,36.54,0.94,11.03,-26.54,-49,78,-923,25.6,21.6,2.0,25.4,1.6,-29.7,5.73,2.51,-27.3,29.8
2012-08-24 00:32:00,0.0,1.9715,0.0009,387.22,0.30,244.4,35.8,138.06,31.23,24.65,36.54,0.93,11.31,-26.53,-49,78,-923,25.6,21.5,2.0,25.4,1.6,-29.6,5.73,2.52,-27.3,29.8
2012-08-24 00:33:00,0.0,1.9706,0.0010,387.32,0.26,251.3,29.5,138.06,31.23,24.66,36.54,0.93,11.60,-26.53,-49,78,-923,25.6,21.4,1.9,25.4,1.6,-29.6,5.73,2.52,-27.3,29.8
2012-08-24 00:34:00,0.0,1.9714,0.0010,387.00,0.33,246.2,32.9,138.06,31.23,24.66,36.55,0.93,11.86,-26.52,-49,78,-923,25.6,21.6,2.0,25.4,1.6,-29.6,5.73,2.52,-27.3,29.8
2012-08-24 00:35:00,0.0,1.9723,0.0010,387.02,0.36,243.9,31.5,138.06,31.23,24.66,36.54,0.92,12.12,-26.51,-49,78,-923,25.6,21.9,2.3,25.4,1.6,-29.6,5.73,2.52,-27.3,29.8
2012-08-24 00:36:00,0.0,1.9728,0.0009,387.01,0.30,243.6,32.3,138.06,31.23,24.66,36.55,0.92,12.37,-26.50,-49,78,-923,25.6,21.8,2.2,25.4,1.6,-29.6,5.73,2.52,-27.3,29.8
2012-08-24 00:37:00,0.0,1.9730,0.0009,387.12,0.31,239.8,31.4,138.06,31.23,24.66,36.54,0.93,12.61,-26.50,-49,78,-923,25.6,21.7,2.1,25.4,1.6,-29.6,5.73,2.52,-27.3,29.9
2012-08-24 00:38:00,0.0,1.9715,0.0019,386.92,0.30,245.6,31.8,138.06,31.23,24.66,36.55,0.94,12.84,-26.49,-49,78,-923,25.6,21.7,2.1,25.4,1.6,-29.6,5.73,2.52,-27.3,29.8
2012-08-24 00:39:00,0.0,1.9690,0.0013,387.24,0.30,234.8,30.0,138.06,31.23,24.66,36.54,0.93,13.06,-26.48,-49,78,-923,25.6,21.4,2.0,25.4,1.6,-29.6,5.73,2.52,-27.3,29.8
2012-08-24 00:40:00,0.0,1.9667,0.0010,387.07,0.29,235.3,29.4,138.06,31.23,24.66,36.55,0.93,13.27,-26.48,-49,78,-923,25.6,21.3,1.9,25.4,1.6,-29.7,5.73,2.53,-27.3,29.8
2012-08-24 00:41:00,0.0,1.9660,0.0011,387.13,0.30,235.5,24.7,138.06,31.23,24.65,36.54,0.94,13.47,-26.47,-49,78,-923,25.6,21.2,1.8,25.4,1.6,-29.7,5.73,2.52,-27.4,29.9
2012-08-24 00:42:00,0.0,1.9654,0.0010,387.04,0.26,238.6,27.8,138.06,31.23,24.66,36.55,0.93,13.67,-26.47,-49,78,-923,25.6,21.3,1.9,25.4,1.6,-29.7,5.73,2.52,-27.4,29.8
2012-08-24 00:43:00,0.0,1.9646,0.0010,387.15,0.27,246.2,35.2,138.06,31.23,24.66,36.54,0.91,13.87,-26.46,-49,78,-923,25.7,21.2,1.8,25.4,1.6,-29.8,5.73,2.52,-27.4,29.8
2012-08-24 00:44:00,0.0,1.9652,0.0011,387.21,0.29,240.8,30.3,138.06,31.23,24.66,36.54,0.94,14.05,-26.45,-49,78,-923,25.6,21.2,1.8,25.4,1.6,-29.8,5.73,2.52,-27.4,29.8
2012-08-24 00:45:00,0.0,1.9662,0.0010,386.93,0.31,237.2,32.4,138.05,31.23,24.66,36.55,0.93,14.22,-26.44,-49,78,-923,25.6,21.3,1.9,25.4,1.6,-29.8,5.73,2.52,-27.4,29.8
2012-08-24 00:46:00,0.0,1.9665,0.0010,387.15,0.29,238.1,29.1,138.05,31.23,24.66,36.54,0.93,14.39,-26.44,-49,78,-923,25.6,21.3,1.8,25.3,1.6,-29.8,5.73,2.52,-27.4,29.8
2012-08-24 00:47:00,0.0,1.9659,0.0011,387.10,0.33,230.5,33.8,138.06,31.23,24.66,36.55,0.93,14.55,-26.43,-49,78,-923,25.6,21.3,1.9,25.4,1.6,-29.8,5.73,2.51,-27.4,29.8
2012-08-24 00:48:00,0.0,1.9663,0.0009,386.93,0.27,234.8,32.9,138.06,31.23,24.66,36.55,0.94,14.70,-26.43,-49,78,-923,25.6,21.5,2.0,25.4,1.6,-29.8,5.73,2.52,-27.4,29.9
2012-08-24 00:49:00,0.0,1.9680,0.0010,386.95,0.27,230.2,29.9,138.05,31.23,24.66,36.55,0.95,14.84,-26.42,-49,78,-923,25.6,21.5,2.0,25.4,1.6,-29.8,5.73,2.52,-27.4,29.9
2012-08-24 00:50:00,0.0,1.9668,0.0012,386.88,0.29,240.9,28.0,138.05,31.23,24.66,36.54,0.93,14.98,-26.42,-49,78,-923,25.6,21.5,2.0,25.4,1.6,-29.8,5.73,2.51,-27.4,29.8
2012-08-24 00:51:00,0.0,1.9617,0.0020,386.95,0.28,236.3,25.4,138.06,31.23,24.66,36.54,0.95,15.12,-26.41,-49,78,-923,25.7,21.3,1.9,25.4,1.6,-29.8,5.73,2.52,-27.4,29.8
2012-08-24 00:52:00,0.0,1.9624,0.0019,387.00,0.31,237.8,32.3,138.05,31.23,24.66,36.54,0.94,15.25,-26.40,-49,78,-923,25.7,21.1,1.7,25.4,1.6,-29.8,5.73,2.52,-27.4,29.9
2012-08-24 00:53:00,0.0,1.9644,0.0008,387.03,0.34,239.7,27.3,138.06,31.23,24.66,36.55,0.94,15.37,-26.39,-49,78,-923,25.6,21.2,1.8,25.4,1.6,-29.8,5.73,2.52,-27.4,29.9
2012-08-24 00:54:00,0.0,1.9631,0.0013,386.95,0.27,238.0,29.4,138.06,31.23,24.66,36.55,0.94,15.49,-26.39,-49,78,-923,25.7,21.2,1.9,25.4,1.6,-29.8,5.73,2.52,-27.4,29.9
2012-08-24 00:55:00,0.0,1.9627,0.0008,386.94,0.27,232.6,30.1,138.06,31.23,24.66,36.54,0.94,15.60,-26.38,-49,78,-923,25.7,21.4,2.0,25.4,1.6,-29.8,5.73,2.52,-27.4,29.9
2012-08-24 00:56:00,0.0,1.9612,0.0017,386.79,0.27,235.3,29.5,138.06,31.23,24.66,36.54,0.93,15.71,-26.38,-49,78,-923,25.7,21.6,2.1,25.4,1.6,-29.8,5.73,2.52,-27.4,29.9
2012-08-24 00:57:00,0.0,1.9607,0.0008,386.96,0.27,232.8,23.4,138.05,31.23,24.66,36.55,0.93,15.81,-26.37,-49,78,-923,25.7,21.2,1.8,25.4,1.6,-29.8,5.73,2.52,-27.4,29.9
2012-08-24 00:58:00,0.0,1.9611,0.0010,386.94,0.26,231.6,29.1,138.06,31.23,24.66,36.54,0.95,15.91,-26.37,-49,78,-923,25.7,21.3,1.9,25.4,1.6,-29.8,5.73,2.52,-27.4,29.9
2012-08-24 00:59:00,0.0,1.9614,0.0009,386.90,0.31,228.0,34.9,138.06,31.23,24.66,36.54,0.94,16.01,-26.36,-49,78,-923,25.7,21.5,2.1,25.4,1.6,-29.8,5.73,2.52,-27.4,29.9
2012-08-24 01:00:00,0.0,1.9605,0.0008,386.69,0.32,234.0,31.9,138.05,31.23,24.66,36.54,0.94,16.10,-26.36,-49,78,-923,25.7,21.9,2.3,25.4,1.6,-29.8,5.73,2.52,-27.4,29.9
2012-08-24 01:01:00,0.0,1.9608,0.0012,386.80,0.28,229.1,29.5,138.06,31.23,24.65,36.55,0.94,16.18,-26.36,-49,78,-923,25.7,21.4,2.0,25.4,1.6,-29.8,5.73,2.52,-27.4,29.9
2012-08-24 01:02:00,0.0,1.9607,0.0008,386.69,0.29,232.9,27.3,138.06,31.23,24.66,36.54,0.94,16.26,-26.35,-49,78,-923,25.7,21.7,2.2,25.5,1.6,-29.8,5.73,2.52,-27.4,30.0
2012-08-24 01:03:00,0.0,1.9616,0.0008,386.66,0.34,231.0,26.5,138.05,31.23,24.66,36.55,0.94,16.34,-26.35,-49,78,-923,25.7,21.6,2.1,25.4,1.6,-29.8,5.73,2.51,-27.4,29.9
2012-08-24 01:04:00,0.0,1.9611,0.0011,386.53,0.32,228.3,27.9,138.05,31.24,24.66,36.55,0.95,16.42,-26.34,-49,78,-923,25.7,21.8,2.2,25.4,1.6,-29.8,5.73,2.52,-27.4,30.0
2012-08-24 01:05:00,0.0,1.9615,0.0008,386.50,0.29,234.3,26.5,138.05,31.24,24.66,36.54,0.93,16.49,-26.34,-49,78,-923,25.7,21.7,2.2,25.4,1.6,-29.8,5.73,2.52,-27.4,30.0
2012-08-24 01:06:00,0.0,1.9615,0.0010,386.32,0.33,238.7,28.2,138.05,31.24,24.66,36.54,0.93,16.56,-26.34,-49,78,-923,25.7,22.1,2.4,25.4,1.6,-29.8,5.73,2.52,-27.4,30.0
2012-08-24 01:07:00,0.0,1.9610,0.0009,386.46,0.28,230.7,27.9,138.05,31.24,24.66,36.54,0.94,16.62,-26.33,-49,78,-923,25.7,21.9,2.3,25.4,1.6,-29.8,5.73,2.52,-27.4,30.0
2012-08-24 01:08:00,0.0,1.9606,0.0009,386.54,0.32,235.9,31.2,138.05,31.24,24.66,36.53,0.94,16.69,-26.33,-49,78,-923,25.7,21.6,2.1,25.4,1.6,-29.8,5.73,2.52,-27.4,30.0
2012-08-24 01:09:00,0.0,1.9602,0.0011,386.44,0.30,229.1,28.2,138.05,31.24,24.66,36.54,0.94,16.75,-26.32,-49,78,-923,25.7,21.7,2.2,25.4,1.6,-29.8,5.73,2.51,-27.4,30.0
2012-08-24 01:10:00,0.0,1.9599,0.0012,386.44,0.33,220.5,30.7,138.05,31.24,24.66,36.54,0.94,16.81,-26.32,-49,78,-923,25.7,21.6,2.1,25.5,1.6,-29.8,5.73,2.51,-27.4,30.0
2012-08-24 01:11:00,0.0,1.9563,0.0019,386.47,0.31,237.3,33.3,138.05,31.24,24.66,36.54,0.94,16.87,-26.31,-49,78,-923,25.7,20.9,1.7,25.5,1.6,-29.7,5.73,2.52,-27.4,30.0
2012-08-24 01:12:00,0.0,1.9581,0.0025,386.00,0.31,227.9,30.3,138.05,31.24,24.66,36.55,0.95,16.92,-26.31,-49,78,-923,25.7,21.5,2.1,25.5,1.6,-29.8,5.73,2.52,-27.4,30.0
2012-08-24 01:13:00,0.0,1.9602,0.0012,386.07,0.31,223.2,33.6,138.05,31.24,24.66,36.54,0.95,16.97,-26.31,-49,78,-923,25.7,21.9,2.3,25.4,1.6,-29.8,5.73,2.52,-27.4,30.0
2012-08-24 01:14:00,0.0,1.9600,0.0011,386.22,0.28,226.0,30.3,138.05,31.24,24.66,36.54,0.94,17.02,-26.30,-49,78,-923,25.7,21.8,2.2,25.4,1.6,-29.8,5.73,2.52,-27.5,30.0
2012-08-24 01:15:00,0.0,1.9595,0.0018,386.12,0.26,225.4,34.0,138.06,31.24,24.66,36.55,0.94,17.07,-26.30,-49,78,-924,25.7,21.7,2.2,25.4,1.6,-29.8,5.73,2.53,-27.5,30.0
2012-08-24 01:16:00,0.0,1.9533,0.0011,386.25,0.25,226.4,35.9,138.05,31.24,24.66,36.54,0.93,17.11,-26.30,-49,78,-923,25.7,20.8,1.6,25.4,1.6,-29.8,5.73,2.52,-27.5,29.9
2012-08-24 01:17:00,0.0,1.9543,0.0015,386.23,0.24,217.6,30.4,138.06,31.24,24.66,36.55,0.94,17.16,-26.30,-49,78,-923,25.7,20.8,1.6,25.4,1.6,-29.8,5.73,2.53,-27.5,29.9
2012-08-24 01:18:00,0.0,1.9551,0.0010,386.20,0.25,222.2,29.4,138.06,31.24,24.66,36.54,0.94,17.19,-26.30,-49,78,-923,25.7,21.1,1.8,25.4,1.6,-29.8,5.73,2.53,-27.5,29.9
2012-08-24 01:19:00,0.0,1.9566,0.0011,386.24,0.25,220.8,27.5,138.06,31.24,24.65,36.54,0.95,17.23,-26.30,-49,78,-923,25.6,21.2,1.8,25.4,1.6,-29.8,5.73,2.53,-27.5,29.8
2012-08-24 01:20:00,0.0,1.9552,0.0020,386.16,0.31,230.0,31.6,138.06,31.24,24.66,36.54,0.94,17.27,-26.30,-49,78,-923,25.6,21.1,1.7,25.4,1.6,-29.8,5.73,2.52,-27.5,29.8
2012-08-24 01:21:00,0.0,1.9516,0.0011,386.13,0.30,229.0,31.2,138.06,31.24,24.66,36.55,0.94,17.31,-26.29,-49,78,-923,25.6,20.6,1.4,25.4,1.6,-29.8,5.73,2.52,-27.5,29.8
2012-08-24 01:22:00,0.0,1.9541,0.0015,385.90,0.25,229.7,29.4,138.06,31.24,24.66,36.55,0.94,17.34,-26.29,-49,78,-923,25.6,21.0,1.7,25.4,1.6,-29.8,5.73,2.52,-27.5,29.8
2012-08-24 01:23:00,0.0,1.9528,0.0014,385.84,0.27,235.4,28.7,138.06,31.24,24.66,36.54,0.94,17.37,-26.29,-49,78,-923,25.7,21.2,1.8,25.4,1.6,-29.8,5.73,2.52,-27.5,29.8
2012-08-24 01:24:00,0.0,1.9510,0.0008,385.98,0.26,235.5,31.8,138.06,31.24,24.66,36.55,0.94,17.41,-26.29,-49,78,-923,25.7,20.7,1.5,25.4,1.6,-29.8,5.73,2.52,-27.5,29.8
2012-08-24 01:25:00,0.0,1.9504,0.0009,386.04,0.32,229.8,35.6,138.06,31.24,24.66,36.55,0.95,17.43,-26.29,-49,78,-923,25.6,20.5,1.3,25.4,1.6,-29.8,5.73,2.52,-27.5,29.8
2012-08-24 01:26:00,0.0,1.9513,0.0009,386.06,0.32,223.5,28.7,138.06,31.24,24.66,36.55,0.95,17.46,-26.29,-49,78,-923,25.6,20.5,1.3,25.4,1.6,-29.8,5.73,2.52,-27.5,29.9
2012-08-24 01:27:00,0.0,1.9527,0.0010,386.04,0.26,232.5,31.3,138.06,31.24,24.66,36.54,0.94,17.49,-26.28,-49,78,-923,25.7,20.8,1.5,25.4,1.6,-29.8,5.73,2.52,-27.4,29.8
2012-08-24 01:28:00,0.0,1.9535,0.0009,385.64,0.35,228.6,34.2,138.06,31.24,24.66,36.55,0.94,17.51,-26.28,-49,78,-923,25.7,21.1,1.8,25.4,1.6,-29.8,5.73,2.52,-27.4,29.9
2012-08-24 01:29:00,0.0,1.9537,0.0012,385.54,0.40,223.6,29.9,138.06,31.24,24.66,36.54,0.94,17.54,-26.28,-49,78,-923,25.7,21.3,1.9,25.5,1.6,-29.7,5.73,2.52,-27.4,29.9
2012-08-24 01:30:00,0.0,1.9511,0.0015,386.12,0.26,229.8,30.7,138.06,31.23,24.66,36.54,0.94,17.57,-26.28,-49,78,-924,25.7,20.4,1.3,25.5,1.6,-29.8,5.73,2.52,-27.4,29.9
2012-08-24 01:31:00,0.0,1.9502,0.0010,386.21,0.32,224.8,30.6,138.05,31.23,24.66,36.55,0.94,17.59,-26.28,-49,78,-923,25.7,20.0,1.0,25.5,1.6,-29.7,5.73,2.52,-27.5,29.9
2012-08-24 01:32:00,0.0,1.9517,0.0009,386.24,0.29,230.4,33.7,138.06,31.23,24.66,36.54,0.94,17.61,-26.27,-49,78,-923,25.7,20.2,1.2,25.5,1.6,-29.7,5.73,2.52,-27.5,29.9
2012-08-24 01:33:00,0.0,1.9516,0.0010,386.21,0.27,222.3,29.1,138.05,31.24,24.66,36.54,0.94,17.63,-26.27,-49,78,-924,25.7,20.3,1.3,25.5,1.6,-29.8,5.73,2.52,-27.5,29.9
2012-08-24 01:34:00,0.0,1.9534,0.0010,386.03,0.36,222.5,26.2,138.05,31.24,24.66,36.54,0.94,17.65,-26.27,-49,78,-923,25.7,20.6,1.5,25.5,1.6,-29.8,5.73,2.52,-27.4,29.9
2012-08-24 01:35:00,0.0,1.9540,0.0010,386.05,0.27,226.4,31.4,138.05,31.24,24.66,36.54,0.94,17.67,-26.27,-49,78,-923,25.7,20.8,1.6,25.5,1.6,-29.7,5.73,2.53,-27.4,29.9
2012-08-24 01:36:00,0.0,1.9531,0.0009,385.97,0.27,231.2,25.6,138.05,31.24,24.66,36.55,0.94,17.69,-26.27,-49,78,-923,25.7,20.6,1.5,25.5,1.6,-29.8,5.73,2.52,-27.4,30.0
2012-08-24 01:37:00,0.0,1.9533,0.0010,385.77,0.28,234.5,30.8,138.05,31.24,24.66,36.54,0.94,17.71,-26.27,-49,78,-923,25.7,20.9,1.7,25.5,1.6,-29.8,5.73,2.52,-27.5,30.0
2012-08-24 01:38:00,0.0,1.9545,0.0010,385.49,0.30,229.3,31.1,138.05,31.24,24.66,36.54,0.94,17.73,-26.27,-49,78,-924,25.7,21.3,1.9,25.5,1.6,-29.7,5.73,2.53,-27.5,30.0
2012-08-24 01:39:00,0.0,1.9502,0.0016,385.82,0.32,230.8,32.0,138.05,31.24,24.66,36.55,0.94,17.74,-26.26,-49,78,-923,25.8,20.4,1.4,25.5,1.6,-29.7,5.73,2.52,-27.5,29.9
2012-08-24 01:40:00,0.0,1.9496,0.0010,385.95,0.24,220.0,32.0,138.06,31.24,24.66,36.55,0.94,17.75,-26.27,-49,78,-923,25.8,19.9,1.0,25.5,1.6,-29.8,5.73,2.52,-27.5,29.9
2012-08-24 01:41:00,0.0,1.9501,0.0008,385.91,0.32,229.6,32.2,138.05,31.25,24.66,36.55,0.94,17.78,-26.26,-49,78,-924,25.8,19.8,1.0,25.6,1.6,-29.9,5.73,2.51,-27.5,30.0
2012-08-24 01:42:00,0.0,1.9498,0.0009,385.84,0.28,224.7,30.5,138.05,31.25,24.66,36.55,0.94,17.79,-26.26,-49,78,-923,25.8,20.0,1.1,25.6,1.6,-29.9,5.73,2.52,-27.5,30.0
2012-08-24 01:43:00,0.0,1.9499,0.0010,385.97,0.33,235.8,28.6,138.05,31.25,24.66,36.55,0.94,17.80,-26.26,-49,78,-923,25.8,19.7,0.9,25.6,1.6,-29.9,5.73,2.52,-27.5,30.0
2012-08-24 01:44:00,0.0,1.9500,0.0011,385.64,0.33,224.0,31.0,138.05,31.25,24.66,36.55,0.94,17.81,-26.26,-49,78,-924,25.8,20.0,1.1,25.6,1.6,-29.9,5.73,2.52,-27.5,30.0
2012-08-24 01:45:00,0.0,1.9508,0.0009,385.65,0.31,228.3,29.5,138.05,31.25,24.66,36.55,1.01,17.63,-26.26,-49,78,-924,25.8,20.1,1.2,25.6,1.6,-29.9,5.73,2.51,-27.5,30.0
2012-08-24 01:46:00,0.0,1.9512,0.0011,385.66,0.28,225.5,31.9,138.05,31.25,24.66,36.55,1.08,16.08,-26.26,-49,78,-923,25.8,20.1,1.2,25.6,1.6,-29.9,5.73,2.52,-27.5,30.0
2012-08-24 01:47:00,0.0,1.9512,0.0014,385.69,0.28,223.8,31.5,138.05,31.25,24.66,36.54,1.09,13.85,-26.26,-49,78,-924,25.8,20.0,1.2,25.6,1.6,-29.9,5.73,2.51,-27.5,30.0
2012-08-24 01:48:00,0.0,1.9517,0.0009,385.41,0.34,228.9,30.8,138.05,31.25,24.66,36.54,0.95,11.52,-26.26,-49,78,-924,25.8,20.5,1.4,25.6,1.6,-29.9,5.73,2.52,-27.5,29.9
2012-08-24 01:49:00,0.0,1.9511,0.0008,385.62,0.24,221.1,29.3,138.05,31.25,24.66,36.54,1.00,9.23,-26.25,-49,78,-924,25.8,20.4,1.4,25.6,1.6,-29.9,5.73,2.52,-27.5,29.9
2012-08-24 01:50:00,0.0,1.9516,0.0010,385.51,0.36,226.6,26.7,138.05,31.25,24.66,36.54,1.09,7.02,-26.24,-49,78,-924,25.8,20.4,1.5,25.6,1.6,-29.9,5.73,2.53,-27.5,29.8
2012-08-24 01:51:00,0.0,1.9511,0.0010,385.55,0.34,227.8,30.0,138.05,31.25,24.66,36.55,1.04,4.91,-26.22,-49,78,-923,25.8,20.2,1.3,25.6,1.6,-29.9,5.73,2.53,-27.5,29.9
2012-08-24 01:52:00,0.0,1.9512,0.0010,385.63,0.31,221.4,31.7,138.05,31.26,24.66,36.55,0.99,2.90,-26.20,-49,78,-924,25.9,20.2,1.3,25.6,1.6,-29.8,5.73,2.53,-27.4,29.9
2012-08-24 01:53:00,0.0,1.9510,0.0009,385.27,0.34,230.5,32.5,138.05,31.26,24.66,36.55,1.09,0.99,-26.19,-49,78,-924,25.9,20.5,1.5,25.6,1.6,-29.7,5.73,2.52,-27.4,29.8
2012-08-24 01:54:00,0.0,1.9511,0.0008,385.64,0.30,229.0,32.0,138.05,31.26,24.66,36.54,1.04,-0.62,-26.17,-49,78,-924,25.9,20.3,1.4,25.6,1.6,-29.7,5.73,2.52,-27.4,29.9
2012-08-24 01:55:00,0.0,1.9519,0.0009,385.42,0.32,222.3,28.6,138.06,31.26,24.65,36.55,0.97,-2.17,-26.15,-49,78,-924,25.9,20.4,1.5,25.6,1.6,-29.7,5.73,2.51,-27.4,29.9
2012-08-24 01:56:00,0.0,1.9515,0.0009,385.42,0.41,232.6,24.5,138.05,31.26,24.66,36.55,1.06,-3.79,-26.14,-49,78,-924,25.9,20.6,1.6,25.6,1.6,-29.7,5.73,2.51,-27.4,29.9
2012-08-24 01:57:00,0.0,1.9513,0.0010,385.92,0.32,228.8,27.1,138.05,31.26,24.66,36.54,1.06,-4.46,-26.13,-49,78,-924,25.9,20.0,1.2,25.6,1.6,-29.7,5.73,2.52,-27.4,29.9
2012-08-24 01:58:00,0.0,1.9518,0.0009,385.70,0.35,226.7,32.5,138.05,31.26,24.66,36.54,0.97,-5.97,-26.12,-49,78,-924,25.9,20.1,1.3,25.7,1.6,-29.7,5.73,2.52,-27.4,29.9
2012-08-24 01:59:00,0.0,1.9519,0.0009,385.65,0.33,230.1,27.6,138.06,31.26,24.66,36.55,1.01,-7.62,-26.12,-49,78,-924,25.9,20.2,1.3,25.7,1.6,-29.6,5.73,2.53,-27.4,29.9
2012-08-24 02:00:00,0.0,1.9525,0.0011,385.49,0.30,229.2,27.8,138.06,31.26,24.66,36.54,1.08,-9.01,-26.11,-49,78,-924,25.9,20.5,1.6,25.6,1.6,-29.7,5.73,2.53,-27.4,29.9
2012-08-24 02:01:00,0.0,1.9524,0.0009,385.61,0.26,222.1,29.8,138.06,31.26,24.66,36.54,1.01,-10.26,-26.11,-49,78,-924,25.9,20.5,1.5,25.6,1.6,-29.7,5.73,2.53,-27.4,29.9
2012-08-24 02:02:00,0.0,1.9529,0.0009,385.49,0.30,229.2,31.1,138.06,31.25,24.66,36.55,0.96,-11.41,-26.11,-49,78,-924,25.9,20.5,1.6,25.6,1.6,-29.7,5.73,2.52,-27.5,29.9
2012-08-24 02:03:00,0.0,1.9536,0.0010,385.20,0.37,221.0,29.2,138.06,31.25,24.66,36.55,1.02,-12.44,-26.11,-49,78,-924,25.9,21.0,1.9,25.6,1.6,-29.6,5.73,2.51,-27.5,29.8
2012-08-24 02:04:00,0.0,1.9537,0.0009,385.54,0.35,231.5,32.6,138.06,31.25,24.66,36.54,1.07,-13.44,-26.11,-49,78,-924,25.8,20.7,1.6,25.6,1.6,-29.7,5.73,2.53,-27.5,29.8
2012-08-24 02:05:00,0.0,1.9537,0.0010,385.32,0.36,221.3,29.5,138.06,31.25,24.66,36.54,0.97,-14.39,-26.11,-49,78,-924,25.8,20.9,1.7,25.6,1.6,-29.7,5.73,2.54,-27.5,29.8
2012-08-24 02:06:00,0.0,1.9541,0.0008,385.35,0.37,227.6,34.1,138.06,31.25,24.66,36.54,0.97,-15.26,-26.12,-49,78,-924,25.8,21.1,1.9,25.6,1.6,-29.7,5.73,2.54,-27.5,29.8
2012-08-24 02:07:00,0.0,1.9547,0.0010,385.13,0.31,234.6,32.0,138.06,31.24,24.66,36.55,1.03,-16.09,-26.13,-50,78,-924,25.8,21.1,1.9,25.6,1.6,-29.7,5.73,2.52,-27.5,29.8
2012-08-24 02:08:00,0.0,1.9537,0.0009,385.34,0.34,227.2,29.4,138.06,31.24,24.66,36.55,1.06,-16.86,-26.14,-50,78,-924,25.8,21.0,1.8,25.6,1.6,-29.7,5.73,2.52,-27.5,29.8
2012-08-24 02:09:00,0.0,1.9532,0.0009,385.53,0.27,228.1,31.1,138.06,31.23,24.66,36.55,0.97,-17.60,-26.15,-49,78,-924,25.8,20.7,1.6,25.6,1.6,-29.7,5.73,2.52,-27.5,29.8
2012-08-24 02:10:00,0.0,1.9538,0.0011,385.71,0.33,229.6,24.6,138.06,31.23,24.66,36.54,0.96,-18.31,-26.16,-49,78,-924,25.8,20.5,1.5,25.6,1.6,-29.7,5.73,2.54,-27.5,29.8
2012-08-24 02:11:00,0.0,1.9544,0.0011,385.47,0.27,224.0,26.6,138.06,31.22,24.66,36.54,1.01,-18.98,-26.17,-50,78,-924,25.8,20.9,1.7,25.6,1.6,-29.7,5.73,2.54,-27.6,29.7
2012-08-24 02:12:00,0.0,1.9528,0.0011,385.63,0.38,225.7,34.4,138.06,31.22,24.66,36.54,1.06,-19.63,-26.19,-50,78,-924,25.8,20.6,1.5,25.6,1.6,-29.8,5.73,2.52,-27.6,29.6
2012-08-24 02:13:00,0.0,1.9525,0.0009,385.63,0.26,228.8,29.1,138.06,31.21,24.66,36.54,1.00,-20.23,-26.20,-49,78,-924,25.8,20.5,1.4,25.6,1.6,-29.9,5.73,2.52,-27.6,29.6
2012-08-24 02:14:00,0.0,1.9529,0.0009,385.62,0.24,216.3,31.6,138.06,31.21,24.66,36.54,0.95,-20.81,-26.21,-49,78,-924,25.7,20.4,1.4,25.5,1.6,-29.9,5.73,2.53,-27.6,29.6
2012-08-24 02:15:00,0.0,1.9535,0.0008,385.24,0.33,221.4,29.5,138.07,31.20,24.65,36.54,0.99,-21.33,-26.23,-50,78,-924,25.7,20.8,1.6,25.5,1.6,-29.9,5.73,2.55,-27.6,29.5
2012-08-24 02:16:00,0.0,1.9540,0.0009,385.29,0.30,225.7,33.2,138.07,31.20,24.66,36.54,1.03,-21.83,-26.24,-50,70,-924,25.7,20.9,1.7,25.5,1.6,-29.9,5.73,2.55,-27.7,29.5
2012-08-24 02:17:00,0.0,1.9531,0.0010,385.41,0.29,213.2,25.6,138.07,31.19,24.66,36.55,1.03,-22.31,-26.26,-49,70,-923,25.7,20.8,1.6,25.5,1.6,-30.0,5.73,2.53,-27.8,29.5
2012-08-24 02:18:00,0.0,1.9536,0.0009,385.18,0.42,207.2,31.8,138.07,31.18,24.66,36.54,0.95,-22.77,-26.28,-49,70,-924,25.7,21.1,1.7,25.5,1.6,-30.0,5.73,2.54,-27.9,29.4
2012-08-24 02:19:00,0.0,1.9532,0.0009,385.20,0.39,215.7,30.6,138.07,31.18,24.66,36.54,0.96,-23.20,-26.29,-49,70,-923,25.6,21.1,1.8,25.4,1.6,-30.0,5.73,2.53,-27.9,29.3
2012-08-24 02:20:00,0.0,1.9529,0.0012,385.32,0.29,199.4,43.2,138.07,31.16,24.66,36.54,1.00,-23.61,-26.32,-49,69,-923,25.6,20.9,1.6,25.4,1.6,-30.0,5.73,2.53,-27.9,29.3
2012-08-24 02:21:00,0.0,1.9527,0.0015,385.38,0.28,206.3,26.8,138.07,31.15,24.66,36.55,1.04,-24.00,-26.33,-49,69,-923,25.6,20.7,1.5,25.4,1.6,-30.0,5.73,2.53,-27.9,29.5